2022 WASHOUGAL NACIONAL // 450 RESULTADOS GERAIS DE QUALIFICAÇÃO

2022 WASHOUGAL NACIONAL // 450 RESULTADOS QUALIFICADOS

É a oitava rodada da temporada, enquanto finalizamos nosso trecho no último trimestre da temporada 2022 Pro Motocross. Mas antes de ouvirmos a erupção da classe 450 através da floresta em Washougal, temos que ver os pilotos estabelecerem seus tempos de qualificação mais rápidos primeiro! Na classificação de pontos, ainda está notavelmente próximo entre o líder Eli Tomac e o jovem piloto de 450, Chase Sexton. Os dois brigaram durante toda a temporada e agora estão apenas a poucos pontos um do outro. O restante da classe 450 não é tão próximo, mas isso não significa que não haja muitas batalhas de alta intensidade. Então role para baixo para descobrir quem pode colocar seus 450 no topo da tabela de classificação aqui em Washougal!

Clique aqui para ver os resultados ao vivo de 250

2022 WASHOUGAL NACIONAL | COBERTURA TOTAL

Fotos por Trevor Nelson


450 RESULTADOS QUALIFICADOS GERAIS 

Eli Tomac começou a cobrar logo no início e estabeleceu um impressionante tempo de volta de 2:11.726 em terrenos acidentados. Ele precisa de mais do que 2:10 para quebrar seu primeiro tempo de sessão. Sua equipe de 3, Christain Craig, ficou em segundo por alguns minutos de qualificação até que o piloto Honda de fábrica de Chase Sexton ficou a poucos centésimos de segundo do tempo rápido de Tomac na sessão 2.

Na volta final, o piloto de fábrica da Kawasaki de Jason Anderson saiu do nada para chegar à pole com um tempo de volta de 2m11.351s23s. Josh Mosiman, da MXA, novamente fez a 2ª volta mais rápida na sessão XNUMX.

POS. # NOME MELHOR TEMPO
1 3 Eli Tomac 2:10.926
2 23 Chase Sexton 2:11.301
3 21 Jason Anderson 2:11.351
4 94 Ken Roczen 2:11.830
5 28 Christian Craig 2:12.468
6 5 Ryan Dungey 2:12.858
7 35 Garrett Marchbanks 2:13.126
8 51 Justin Barcia 2:13.590
9 17 Joseph Savatgy 2:14.155
10 12 Shane McElrath 2:14.248
11 73 Benny Bloss 2:15.067
12 26 Alex Martin 2:15.713
13 41 Brandon Hartranft 2:15.743
14 61 Fredrik Noren 2:16.515
15 7 Aaron Plessinger 2:16.677
16 55 Justin Rodbell 2:17.050
17 285 Marechal Weltin 2:17.143
18 11 Kyle Chisholm 2:18.101
19 78 Cade Clason 2:19.492
20 910 Carson Brown 2:19.527
21 647 Matthew Hubert 2:19.652
22 476 Collin Jurin 2:19.731
23 65 Grant Harlan 2:19.989
24 837 Bryson Gardner 2:20.041
25 171 Josh Mosiman 2:20.348
26 57 Kevin Moranz 2:20.496
27 522 Rob Windt 2:21.079
28 204 Kyle Greeson 2:21.224
29 420 Jackson Gray 2:21.634
30 139 Nathen LaPorte 2:21.678
31 820 Matthew Burkeen 2:21.746
32 170 Keylan Meston 2:21.926
33 787 Lars van Berkel 2:21.929
34 216 Devin Harriman 2:22.028
35 92 Jace Kessler 2:22.101
36 841 Jeffrey Walker 2:22.165

TOP 36 VÁ DIRETAMENTE PARA MOTOS

37 234 Mccoy Brough 2:22.209
38 594 Morgan Burger 2:22.650
39 528 Ryan Peters 2:22.930
40 246 Chance Blackburn 2:22.989
41 958 Matthew Curler 2:23.106
42 454 Layton Smail 2:23.201
43 617 Hayden Cordell 2:23.486
44 840 Austin Kouba 2:23.665
45 230 Dylan Summerlin 2:24.144
46 181 Wyatt Lyonsmith 2:24.243
47 600 Connor Olson 2:24.411
48 928 Bryce Hammond 2:24.413
49 645 Colby Copp 2:24.505
50 461 Thomas Richards 2:25.327
51 926 Ryan Martin 2:25.353
52 319 Devon Bates 2:25.672
53 512 Austin Cozadd 2:26.131
54 292 Kolton Dean 2:26.632
55 470 Ethan Day 2:27.584
56 250 Brandon Kallberg 2:27.623
57 979 Philip Maus 2:27.892
58 458 Brent Burkhart 2:28.010
59 482 Riley Brough 2:28.038
60 565 Dominic DeSimone 2:28.101
61 472 Rory Sullivan 2:28.211
62 398 Wade Huffman 2:28.946
63 700 Kyle Krell 2:29.096
64 344 Monte McGrath 2:29.607
65 719 Joshua Berchem 2:29.868
66 253 Nicholas Jones 2:30.050
67 894 Dwight Dillon 2:30.375
68 989 Chris Rogers 2:30.757
69 845 Bryan O'Neil 2:31.195
70 735 Jake Warren 2:31.574
71 450 Brad Burkhart 2:31.920
72 326 Rafael Chao 2:32.189
73 917 Drew Thomas 2:32.297
74 732 Josh McBride 2:33.180
75 402 Samuel Greenawalt 2:33.323
76 774 Bradley Denton 2:36.252
77 641 Tommy Flora 2:37.472
78 274 Jared Struebing 2:42.576

 

RESULTADOS DE 450 SESSÕES 1

Josh Mosiman, da MXA, liderou a primeira volta da qualificação na classe 450. Quando os pilotos ganharam velocidade, foi Eli Tomac que se destacou do pelotão, com um tempo de volta de 2:14.123. Na terceira volta, os companheiros de equipe Honda de Ken Roczen e Chase Sexton assumiram os primeiros lugares. Ken invadiu o tempo de volta de 2:12.

Na volta 5, Tomac retoma a pole position com uma volta de 2:10 com Sexton, Anderson e Roczen a reboque.

Tomac manteve a pole até o final da primeira sessão de qualificação. Nosso próprio Josh Mosiman ficou em 23º na primeira sessão.

POS. # CAVALEIRO MELHOR TEMPO
1 3 Eli Tomac 2:10.926
2 23 Chase Sexton 2:11.301
3 94 Ken Roczen 2:11.830
4 21 Jason Anderson 2:12.724
5 28 Christian Craig 2:13.259
6 51 Justin Barcia 2:13.695
7 5 Ryan Dungey 2:13.958
8 17 Joseph Savatgy 2:14.155
9 12 Shane McElrath 2:14.248
10 35 Garrett Marchbanks 2:15.245
11 26 Alex Martin 2:15.942
12 41 Brandon Hartranft 2:16.131
13 73 Benny Bloss 2:16.221
14 61 Fredrik Noren 2:16.515
15 55 Justin Rodbell 2:17.050
16 285 Marechal Weltin 2:17.143
17 7 Aaron Plessinger 2:17.333
18 78 Cade Clason 2:19.492
19 910 Carson Brown 2:19.701
20 837 Bryson Gardner 2:20.041
21 65 Grant Harlan 2:20.045
22 11 Kyle Chisholm 2:20.196
23 171 Josh Mosiman 2:20.348
24 57 Kevin Moranz 2:20.496
25 420 Jackson Gray 2:21.634
26 139 Nathen LaPorte 2:21.678
27 820 Matthew Burkeen 2:21.746
28 787 Lars van Berkel 2:21.929
29 92 Jace Kessler 2:22.101
30 234 Mccoy Brough 2:22.209
31 841 Jeffrey Walker 2:22.253
32 216 Devin Harriman 2:22.395
33 170 Keylan Meston 2:22.627
34 645 Colby Copp 2:24.505
35 928 Bryce Hammond 2:24.916
36 958 Matthew Curler 2:25.120
37 319 Devon Bates 2:25.672
38 565 Dominic DeSimone 2:28.101
2022 Nacional de Washougal450 qualificaçõesMotocross profissionalRESULTADOS SX-450motocross washougalWashougal MXnacional washougal